[Iaude] MPEC E04: 2024 DV1 [a=0.87,e=0.38,i=23.0,H=20.1,PHA]

mpec at cfa.harvard.edu mpec at cfa.harvard.edu
Fri Mar 1 14:17:46 EST 2024


M.P.E.C. 2024-E04                                 Issued 2024 March 1, 19:16 UT

     The Minor Planet Electronic Circulars contain information on unusual
         minor planets, routine data on comets and natural satellites,
         and occasional editorial announcements.  They are published
    on behalf of Division F of the International Astronomical Union by the
          Minor Planet Center, Smithsonian Astrophysical Observatory,
                          Cambridge, MA 02138, U.S.A.
			  
             Prepared using the Tamkin Foundation Computer Network

                              MPC at CFA.HARVARD.EDU
            URL https://www.minorplanetcenter.net/    ISSN 1523-6714

                                    2024 DV1                                    


Observations:
     K24D01V  C2023 12 17.62555710 51 02.333-29 17 33.96         21.25GVEE004F51
     K24D01V  C2023 12 17.63603010 51 03.274-29 17 45.70         22.26GVEE004F51
     K24D01V  C2023 12 17.64553010 51 04.118-29 17 56.16         21.80GVEE004F51
     K24D01V  C2023 12 17.65453410 51 04.927-29 18 06.23         21.62GVEE004F51
     K24D01V* C2024 02 28.22258115 27 25.630-57 11 27.24         17.97oVEE004W68
     K24D01V  C2024 02 28.22438315 27 28.562-57 11 28.18         18.01oVEE004W68
     K24D01V  C2024 02 28.24876215 28 07.267-57 11 35.09         17.93oVEE004W68
     K24D01V  C2024 02 28.25433715 28 16.102-57 11 36.49         17.84oVEE004W68
     K24D01V  C2024 02 29.36836216 00 33.29 -56 55 03.9                WEE004X09
     K24D01V  C2024 02 29.37189216 00 39.74 -56 54 58.1                WEE004X09
     K24D01V |C2024 03 01.19392016 27 26.040-56 15 35.40         17.5 GVEE004807
     K24D01V |C2024 03 01.19539016 27 28.970-56 15 30.00         17.8 GVEE004807
     K24D01V |C2024 03 01.19685016 27 32.000-56 15 25.20         17.7 GVEE004807

Observer details:
807 Cerro Tololo Observatory, La Serena.  Observers T. Linder, R. Holmes.
    0.61-m f/6.8 Ritchey-Chretien + CCD.
F51 Pan-STARRS 1, Haleakala.  Observers J. Herman, T. Lowe, P. Minguez, A.
    Schultz, I. Smith.  Measurers K. Chambers, T. de Boer, J. Fairlamb, H.
    Gao, M. Huber, C.-C. Lin, E. Magnier, Y. Ramanjooloo, R. Wainscoat, R.
    Weryk.  1.8-m Ritchey-Chretien + CCD.
W68 ATLAS Chile, Rio Hurtado.  Observers L. Denneau, R. Siverd, J. Tonry, H.
    Weiland.  Measurers L. Denneau, N. Erasmus, A. Fitzsimmons, A. Lawrence,
    J. Robinson, R. Siverd, J. Tonry, H. Weiland.  0.5-m Reflector + CCD.
X09 Deep Random Survey, Rio Hurtado.  Observers A. Schnabel, D. Ruhela.
    Measurer S. Deen.  0.43-m reflector + CMOS.

Orbital elements:
2024 DV1                                            PHA, Earth MOID = 0.0378 AU
Epoch 2024 Mar. 31.0 TT = JDT 2460400.5                 MPC                     
M 305.19019              (2000.0)            P               Q                  
n   1.21947895     Peri.  123.54854     +0.44250457     +0.89517262             
a   0.8676672      Node   172.13786     -0.89613455     +0.44364335             
e   0.3830795      Incl.   22.99573     -0.03365378     -0.04297169             
P   0.81           H   20.15          G   0.15           U   8                  
Residuals in seconds of arc
231217 F51  0.0   0.0     240228 W68  0.3+  0.2-    240301 807  0.0   0.3-
231217 F51  0.0   0.1-    240228 W68  0.1+  0.1-    240301 807  0.3-  0.2+
231217 F51  0.0   0.1+    240228 W68  0.0   0.1-    240301 807  0.3+  0.1+
231217 F51  0.0   0.0     240229 X09  0.4-  0.4+
240228 W68  0.3-  0.1+    240229 X09  0.2+  0.0

Ephemeris:
2024 DV1                 a,e,i = 0.87, 0.38, 23                  q = 0.5353
Date    TT    R. A. (2000) Decl.     Delta      r    Elong.  Phase     V
2024 01 31    12 02 52.4 -43 26 40   0.3541  1.1283   104.7    57.6    20.2
...
2024 02 15    12 48 18.9 -49 50 19   0.2178  1.0686   106.1    62.6    19.2
...
2024 02 23    13 49 56.9 -54 42 35   0.1469  1.0294   101.8    70.1    18.5
...
2024 02 29    15 49 16.7 -57 03 55   0.09933 0.9967    90.7    83.6    18.1
2024 03 01    16 20 45.6 -56 27 28   0.09259 0.9910    87.4    87.2    18.0
2024 03 02    16 55 13.5 -55 10 16   0.08644 0.9852    83.6    91.4    18.0
...
2024 03 08    20 06 59.2 -28 06 26   0.07058 0.9489    50.1   126.6    19.7
...
2024 03 16    21 53 14.4 +08 42 23   0.1149  0.8965    29.4   146.9    23.1
...
2024 03 31    22 54 29.0 +24 28 14   0.2645  0.7879    32.2   137.5    23.3

A. U. Tomatic                (C) Copyright 2024 MPC           M.P.E.C. 2024-E04





More information about the Iaude mailing list